COSMOS 2252

导读

COSMOS 2252是独联体(CIS)于1993年6月24日8时发射的军用卫星,隶属于苏联/俄罗斯“宇宙”(Cosmos)系列卫星,该系列涵盖军事侦察、通信、技术试验等多种航天任务。作为冷战后独联体早期发射的军用航天器,其具体任务细节与技术参数并未对外公开,目前该卫星已在轨运行超过32年,属于俄太空军事体系早期部署的空间资产,现阶段仍在轨运行。

基本信息
目录编号:
22687
目录名称:
COSMOS 2252
国际标识:
1993-038A
轨道中心:
EARTH
卫星名称:
COSMOS 2252
卫星全名:
--
卫星状态:
在轨 (已飞行12050 天)
发射日期:
1993-06-24 UTC
国别 :
俄罗斯(独联体) (CIS)
星等 :
--
轨道信息
数据来源 国际轨道数据
星历时间: 2026-06-20T18:20:18+0800
20小时前
查看轨道信息
半长轴: 7787.354km
偏心率: 0.0007151
轨道倾角: 82.581°
近地点辐角 337.680°
升交点赤经 225.888°
平近点角 33.745°
近地点: 1403.648km
远地点: 1414.786km
周期: 113.984分钟
每日圈数: 12.633332
详细信息
使用方式:
暂无
2D轨道图
3D轨道图
轨道高度分析图
轨道倾角分析图
轨道综合分析图
查看轨道综合分析图